Regional Weather Roundup
Issued by NWS

Home | Current Version | Previous Version | Graphics & Text | Print | Product List | Glossary On
Versions: 1 2 3 4 5 6 7 8 9 10 11 12 13 14 15 16 17 18 19 20 21 22 23 24 25 26 27 28 29 30 31 32 33 34 35 36 37 38 39 40 41 42 43 44 45 46 47 48 49 50
000
ASUS43 KMPX 270410
RWRMN
WEATHER ROUNDUP FOR MINNESOTA
NATIONAL WEATHER SERVICE TWIN CITIES/CHANHASSEN MN
1000 PM CST WED NOV 26 2014


NOTE: "FAIR" INDICATES FEW OR NO CLOUDS BELOW 12,000 FEET WITH NO
SIGNIFICANT WEATHER AND/OR OBSTRUCTIONS TO VISIBILITY. N/A MEANS
CURRENT SKY AND/OR WEATHER CONDITIONS ARE NOT AVAILABLE.

MNZ060>063-068>070-270500-
   Twin Cities Metro

CITY           SKY/WX    TMP DP  RH WIND       PRES   REMARKS
TWIN CITIES    FLURRIES  17   9  70 N14       30.35R WCI   3
ST PAUL        CLOUDY    18   9  68 NW16      30.37R WCI   3
CRYSTAL        CLOUDY    17   5  59 NW13      30.36R WCI   4
BLAINE         CLOUDY    18   7  62 NW16      30.36R WCI   3
LAKEVILLE      CLOUDY    16  10  79 NW15      30.33R WCI   1
EDEN PRAIRIE   CLOUDY    16   7  67 N16       30.35R WCI   1
SOUTH ST PAUL  CLOUDY    19  11  70 NW13      30.35R WCI   6
LAKE ELMO      CLOUDY    19  10  68 N9        30.34R WCI   9
$$
MNZ001>005-007-008-013>017-022>024-027-028-270500-
   Northwest Minnesota

CITY           SKY/WX    TMP DP  RH WIND       PRES   REMARKS
BEMIDJI        PTCLDY   -12 -15  83 NW7       30.42S WCI -27
HALLOCK        PTCLDY    -9 -15  77 N3        30.53R
ROSEAU         PTCLDY    -9 -15  77 NW5       30.50S WCI -21
WARROAD        PTCLDY    -9 -17  70 W5        30.49R WCI -21
THIEF RVR FALL CLEAR     -8 -11  84 NW7       30.49R WCI -22
CROOKSTON      PTCLDY    -8 -13  77 CALM      30.54S
FOSSTON        CLEAR    -13 -18  77 NW5       30.47S WCI -25
DETROIT LAKES  PTCLDY    -6  -9  84 N8        30.46S WCI -21
MOORHEAD       PTCLDY    -6  -9  84 N6        30.53R WCI -18
PARK RAPIDS    CLEAR     -9 -13  83 NW6       30.41R WCI -22
MAHNOMEN       FAIR      -8 -13  80 N6        30.47S WCI -22
$$
MNZ006-009>011-018-025>026-270500-
   North Central Minnesota

CITY           SKY/WX    TMP DP  RH WIND       PRES   REMARKS
BAUDETTE       PTCLDY    -6 -11  79 N6        30.44S WCI -19
FLAG ISLAND    PTCLDY    -9 -15  77 NW9       30.47R WCI -27
INTL FALLS     CLEAR     -8 -13  78 NW5       30.42S WCI -19
WASKISH        PTCLDY    -6  -9  84 CALM      30.44R
BIG FORK       CLEAR     -6 -11  77 N3        30.40S
LONGVILLE      CLEAR     -2  -9  71 N5        30.41R WCI -12
GRAND RAPIDS   CLEAR     -2  -9  71 NW12      30.37R WCI -20
CRANE LAKE     CLEAR     -6  -8  92 CALM      30.43R
ORR            CLEAR     -6 -11  77 CALM      30.35S
COOK           CLEAR     -8  -9  92 CALM      30.37S
WALKER         FAIR      -6 -11  77 CALM      30.42R
$$
MNZ012-019>021-037-270500-
   Northeast Minnesota

CITY           SKY/WX    TMP DP  RH WIND       PRES   REMARKS
DULUTH         CLEAR      2  -6  69 N9        30.32R WCI -13
ELY            CLEAR     -4  -8  84 NW3       30.34R
HIBBING        CLEAR     -1  -8  72 N10       30.37R WCI -17
EVELETH        CLEAR      0  -6  78 N7        30.36R WCI -13
DULUTH HARBOR  PTCLDY     9   1  72 N14G22    30.41R WCI  -8
TWO HARBORS    PTCLDY     5  -2  72 NW6       30.32R WCI  -6
SILVER BAY     PTCLDY     3  -4  72 NW7       30.31S WCI  -9
GRAND MARAIS     N/A      3  -7  63 N22G35    30.32R WCI -19
G MARAIS ARPRT PTCLDY    -6 -11  77 N12G18    30.23S WCI -24
$$
MNZ029>031-032-039>041-046>048-054>057-064-270500-
   West Central Minnesota

CITY           SKY/WX    TMP DP  RH WIND       PRES   REMARKS
FERGUS FALLS   CLEAR     -4 -11  71 N6        30.53R WCI -16
WHEATON        PTCLDY    -2  -8  78 NW7       30.53R WCI -16
MORRIS         CLEAR     -2  -8  78 NW15      30.46R WCI -22
ALEXANDRIA     CLEAR     -1  -7  75 N9        30.42R WCI -16
ELBOW LAKE     FAIR      -3  -7  84 NW12      30.46R WCI -21
WADENA         CLEAR     -4  -9  77 N7        30.42S WCI -18
GLENWOOD       CLEAR      0  -6  78 NW12      30.42R WCI -18
APPLETON       CLEAR      0  -6  78 NW17G23   30.49R WCI -21
BENSON         CLEAR     -2  -6  84 N9        30.46R WCI -18
ORTONVILLE     CLEAR      0  -8  71 NW8       30.49R WCI -15
MADISON        PTCLDY     3  -2  78 NW15      30.49R WCI -15
WILLMAR        FAIR       3  -2  78 NW10      30.43R WCI -12
$$
MNZ033>034-036-042>043-049>051-058-059-270500-
   Central Minnesota

CITY           SKY/WX    TMP DP  RH WIND       PRES   REMARKS
ST CLOUD       PTCLDY     9  -6  50 N9        30.40R WCI  -4
SAUK CENTRE    FAIR       1  -6  73 NW13      30.41S WCI -17
PAYNESVILLE    CLEAR      1  -6  72 W9        30.41R WCI -14
AITKIN         CLEAR      3  -6  66 NW6       30.38R WCI  -8
PINE RIVER     CLEAR      0  -6  78 NW7       30.43R WCI -13
BRAINERD       CLEAR      2  -6  69 N12       30.40R WCI -15
STAPLES        CLEAR     -2  -9  71 NW8       30.41S WCI -17
LONG PRAIRIE   FAIR       1  -6  71 NW6       30.41R WCI -10
LITTLE FALLS   CLEAR      5  -6  61 NW6       30.41R WCI  -6
LITCHFIELD     PTCLDY     9   0  66 NW13      30.39S WCI  -7
BUFFALO        PTCLDY    12  -2  53 NW10      30.39R WCI  -1
MAPLE LAKE     PTCLDY    12  -2  53 NW14      30.39R WCI  -4
$$
MNZ037-044-045-052-053-270500-
   East Central Minnesota

CITY           SKY/WX    TMP DP  RH WIND       PRES   REMARKS
PRINCETON      PTCLDY    10  -2  56 N9        30.39R WCI  -2
MORA           CLEAR      9  -4  56 N9        30.40R WCI  -5
CAMBRIDGE      PTCLDY    12   0  57 NW8       30.36R WCI   1
RUSH CITY      PTCLDY    11  -2  57 N9G17     30.38R WCI  -2
MOOSE LAKE     CLEAR      5  -4  66 N6        30.36R WCI  -6
HINCKLEY       FAIR      10   0  61 N12G20    30.37R WCI  -4
CLOQUET        CLEAR      1  -6  71 NW12      30.34R WCI -15
MCGREGOR       CLEAR      3  -4  72 NW8       30.38S WCI -10
$$
MNZ071>073-080-081-089-090-097-098-270500-
   Southwest Minnesota

CITY           SKY/WX    TMP DP  RH WIND       PRES   REMARKS
MONTEVIDEO     PTCLDY     0  -6  78 N12       30.48R WCI -18
GRANITE FALLS  PTCLDY     1  -5  76 NW15      30.47S WCI -18
CANBY          CLEAR      1  -5  76 NW12      30.48S WCI -16
MARSHALL       PTCLDY     3  -8  60 N21       30.43R WCI -18
REDWOOD FALLS  MOCLDY     5  -2  72 NW10      30.42R WCI -10
OLIVIA         PTCLDY     5   0  78 NW16G22   30.42R WCI -14
PIPESTONE      PTCLDY     7  -8  51 N8        30.40R WCI  -6
WINDOM         CLOUDY     7   1  78 NW16G26   30.38R WCI -11
WORTHINGTON    CLOUDY     7   0  72 N18       30.38R WCI -12
JACKSON        CLOUDY    10   3  72 NW20G25   30.37R WCI  -8
TRACY          MOCLDY     6  -1  72 NW16G24   30.41S WCI -13
SLAYTON        MOCLDY     5  -4  67 NW15G22   30.39R WCI -13
$$
MNZ065>067-074>077-082>085-091>093-270500-
   South Central Minnesota

CITY           SKY/WX    TMP DP  RH WIND       PRES   REMARKS
MANKATO        CLOUDY    14   9  79 NW16      30.35R WCI  -2
NEW ULM        CLOUDY     9   3  78 NW15G25   30.39R WCI  -8
ST JAMES       CLOUDY     9   5  85 NW15      30.40R WCI  -8
FAIRMONT       CLOUDY     9   3  78 NW18      30.35S WCI -10
GLENCOE        MOCLDY    16   8  71 NW12      30.37R WCI   3
FARIBAULT      CLOUDY    19  12  73 NW9       30.33R WCI   9
OWATONNA       CLOUDY    19  12  73 NW14      30.31R WCI   6
WASECA         CLOUDY    14   9  79 W10       30.35S WCI   1
ALBERT LEA     CLOUDY    16  12  86 NW8       30.31R WCI   5
$$
MNZ078>079-086>088-094>096-270500-
   Southeast Minnesota

CITY           SKY/WX    TMP DP  RH WIND       PRES   REMARKS
ROCHESTER      CLOUDY    21  15  78 NW13      30.27R WCI   9
RED WING       CLOUDY    21  12  68 N5        30.31R WCI  15
STANTON        CLOUDY    22  13  70 NW10      30.32R WCI  11
DODGE CENTER   LGT SNOW  21  18  86 NW10      30.28R WCI  10
WINONA         CLOUDY    27  23  86 NW6       30.29R WCI  20
AUSTIN         FLURRIES  19  16  86 NW14      30.29R WCI   6
PRESTON        CLOUDY    21  18  86 N8        30.26R WCI  12
$$
ABBREVIATIONS USED IN REMARKS
   TC - TEMPERATURES IN CELSIUS
  WCI - WIND CHILL INDEX
   HX - HEAT INDEX
  VSB - VISIBILITY
$$



USA.gov is the U.S. government's official web portal to all federal, state and local government web resources and services.